Location: Hurecourt
(47.9030°N, 6.0653°E)
Time: 20:52:34
(UTC+00:00)

Cosmos 1697 Rocket - Pass Details

Date: 14 July 2020
Orbit: 834 x 842 km, 71.0° (Epoch: 14 August)

Event Time Altitude Azimuth Distance (km) Brightness Sun altitude
Rises 02:08:17 0° 328° (NNW) 3,397 6.2 -13.1°
Reaches altitude 10° 02:10:48 10° 323° (NW) 2,458 5.3 -12.9°
Maximum altitude 02:16:11 48° 251° (WSW) 1,078 2.9 -12.3°
Drops below altitude 10° 02:21:32 10° 178° (S) 2,438 4.6 -11.8°
Enters shadow 02:22:28 - 175° (S) 2,785 5.0 -11.7°
